FW0709 Weather Reports


time (UTC)temp
C
wind
direction
speed
KPH
gust
KPH
rain 1hr
cm
rain 24hr
cm
rain mn
cm
humidity
%
barometer
mb
20260506160038 9 281 6.4 14.5 0.00 0.00 0.00 50 1010.3
20260506154539 9 261 1.6 16.1 0.00 0.00 0.00 50 1010.2
20260506153037 8 248 8.0 17.7 0.00 0.00 0.00 50 1010.2
20260506151539 9 300 4.8 20.9 0.00 0.00 0.00 48 1010.2
20260506150042 8 291 4.8 14.5 0.00 0.00 0.00 52 1010.2
20260506144536 8 266 11.3 24.1 0.00 0.00 0.00 50 1010.2
20260506143039 8 242 4.8 19.3 0.00 0.00 0.00 50 1010.2
20260506141541 9 269 6.4 22.5 0.00 0.00 0.00 48 1010.2
20260506140034 10 261 11.3 30.6 0.00 0.00 0.00 47 1010.2
20260506134631 10 273 8.0 22.5 0.00 0.00 0.00 49 1010.1
20260506133029 10 294 6.4 24.1 0.00 0.00 0.00 50 1010.1
20260506131528 8 305 8.0 25.7 0.00 0.00 0.00 53 1009.9
20260506130030 8 313 9.7 24.1 0.00 0.00 0.00 56 1009.8
20260506124528 8 327 16.1 30.6 0.00 0.00 0.00 55 1010.0
20260506123027 8 279 11.3 24.1 0.00 0.00 0.00 54 1009.9
20260506121524 7 321 12.9 24.1 0.00 0.00 0.00 56 1009.9
20260506120046 7 292 9.7 25.7 0.00 0.00 0.00 55 1009.9
20260506114522 7 256 12.9 35.4 0.00 0.00 0.00 54 1009.8
20260506113021 8 273 14.5 29.0 0.00 0.00 0.00 53 1009.5
20260506111518 7 278 17.7 33.8 0.00 0.00 0.00 54 1009.2
20260506110016 8 257 11.3 32.2 0.00 0.00 0.00 51 1009.0
20260506104526 10 254 12.9 27.4 0.00 0.00 0.00 47 1008.8
20260506103033 9 290 8.0 32.2 0.00 0.00 0.00 47 1008.6
20260506101509 9 290 14.5 29.0 0.00 0.00 0.00 45 1008.5
20260506100007 8 255 14.5 32.2 0.00 0.00 0.00 47 1008.5
20260506094505 8 298 11.3 29.0 0.00 0.00 0.00 50 1008.3
20260506093010 8 272 12.9 30.6 0.00 0.00 0.00 48 1008.1
20260506091502 9 307 11.3 30.6 0.00 0.00 0.00 48 1008.0
20260506090104 8 259 6.4 29.0 0.00 0.00 0.00 50 1008.0
20260506084619 7 226 11.3 33.8 0.00 0.00 0.00 53 1007.8
20260506083053 7 295 14.5 30.6 0.00 0.00 0.00 51 1007.8
20260506081556 7 287 14.5 32.2 0.00 0.00 0.00 53 1007.6
20260506073045 7 238 12.9 30.6 0.00 0.00 0.00 57 1007.2
20260506071540 6 285 6.4 20.9 0.00 0.00 0.00 59 1006.9
20260506061526 5 278 8.0 24.1 0.00 0.00 0.00 67 1006.5
20260506044503 2 277 4.8 24.1 0.00 0.00 0.00 76 1006.0
20260506043059 2 256 9.7 20.9 0.00 0.00 0.00 77 1005.8
20260506041606 2 285 3.2 16.1 0.00 0.00 0.00 78 1005.8
20260506040054 1 277 3.2 17.7 0.00 0.00 0.00 79 1005.6
20260506034553 1 267 3.2 12.9 0.00 0.00 0.00 81 1005.4
20260506033050 0 264 1.6 11.3 0.00 0.00 0.00 84 1005.3
20260506031547 0 281 3.2 9.7 0.00 0.00 0.00 85 1005.2
20260506030045 0 267 0.0 4.8 0.00 0.00 0.00 85 1005.1
20260506024543 -1 259 0.0 6.4 0.00 0.03 0.00 85 1005.0
20260506023059 0 273 0.0 4.8 0.00 0.03 0.00 84 1004.8
20260506021602 0 276 0.0 4.8 0.00 0.03 0.00 84 1004.8
20260506020035 0 271 0.0 4.8 0.00 0.03 0.00 83 1004.7
20260506014534 0 275 0.0 9.7 0.00 0.03 0.00 84 1004.5
20260506013034 0 277 1.6 6.4 0.00 0.03 0.00 84 1004.4
20260506011529 0 278 0.0 6.4 0.00 0.03 0.00 83 1004.3
20260506010027 0 267 1.6 11.3 0.00 0.03 0.00 84 1004.2
20260506004527 0 282 0.0 6.4 0.00 0.03 0.00 84 1004.1
20260506003021 0 248 0.0 6.4 0.00 0.03 0.00 83 1003.9
20260506001518 0 270 0.0 4.8 0.00 0.03 0.00 82 1003.8
20260506000016 0 269 0.0 6.4 0.00 0.03 0.00 82 1003.7
20260505234515 0 273 0.0 6.4 0.00 0.03 0.00 81 1003.6
20260505233011 0 232 0.0 3.2 0.00 0.03 0.00 80 1003.5
20260505231518 0 230 0.0 8.0 0.00 0.03 0.00 80 1003.5
20260505230015 1 278 0.0 6.4 0.00 0.03 0.00 79 1003.4
20260505224505 1 255 1.6 11.3 0.00 0.03 0.00 79 1003.4
20260505223003 1 234 3.2 11.3 0.00 0.03 0.00 78 1003.3
20260505221604 1 250 1.6 9.7 0.00 0.03 0.00 77 1003.3
20260505220100 1 229 1.6 9.7 0.00 0.03 0.00 76 1003.2
20260505214558 1 250 0.0 4.8 0.00 0.03 0.00 75 1003.1
20260505213051 2 249 0.0 4.8 0.00 0.03 0.00 74 1003.0
20260505211547 2 246 0.0 6.4 0.00 0.03 0.00 73 1002.9
20260505210045 2 245 3.2 11.3 0.00 0.03 0.00 71 1002.8
20260505204541 2 256 1.6 6.4 0.00 0.03 0.03 70 1002.7
20260505203058 2 211 4.8 14.5 0.00 0.03 0.03 69 1002.6
20260505201544 3 218 4.8 16.1 0.00 0.03 0.03 67 1002.5
20260505200046 3 229 1.6 8.0 0.00 0.03 0.03 65 1002.5
20260505194539 3 236 1.6 11.3 0.00 0.03 0.03 63 1002.4
20260505193036 4 232 1.6 11.3 0.00 0.03 0.03 60 1002.4
20260505191535 5 269 0.0 9.7 0.00 0.03 0.03 60 1002.4
20260505190035 5 257 3.2 12.9 0.00 0.03 0.03 59 1002.3
20260505184537 5 243 0.0 8.0 0.00 0.05 0.03 56 1002.3
20260505183032 6 253 1.6 12.9 0.00 0.05 0.03 54 1002.2
20260505181538 6 261 6.4 17.7 0.00 0.05 0.03 53 1002.0
20260505180030 6 252 4.8 24.1 0.00 0.05 0.03 53 1002.0
20260505174538 7 317 6.4 17.7 0.00 0.05 0.03 52 1001.9
20260505173029 7 263 6.4 20.9 0.00 0.05 0.03 51 1001.9
20260505171528 7 272 6.4 25.7 0.00 0.05 0.03 50 1001.7
20260505170026 8 282 4.8 27.4 0.00 0.05 0.03 50 1001.7
20260505164526 8 278 9.7 24.1 0.00 0.05 0.03 48 1001.7
20260505163030 8 301 14.5 30.6 0.00 0.05 0.03 45 1001.5
20260505161523 9 293 17.7 32.2 0.00 0.05 0.03 43 1001.5